EW8215 Weather Reports


Display with metric or nautical units.
time (UTC)temp
F
wind
direction
speed
MPH
gust
MPH
rain 1hr
in
rain 24hr
in
rain mn
in
humidity
%
barometer
mb
20260508200444 73 145 0.0 2.0 0.00 0.00 0.00 85 1011.7
20260508195938 73 142 1.0 2.0 0.00 0.00 0.00 85 1011.5
20260508195436 74 138 1.0 2.0 0.00 0.00 0.00 84 1011.8
20260508194932 73 134 2.0 3.0 0.00 0.00 0.00 84 1011.6
20260508194429 73 130 5.0 5.0 0.00 0.00 0.00 84 1011.7
20260508193926 73 148 0.0 0.0 0.00 0.00 0.00 86 1011.8
20260508193423 73 133 1.0 2.0 0.00 0.00 0.00 86 1011.8
20260508192919 73 142 0.0 0.0 0.00 0.00 0.00 86 1011.8
20260508192416 73 145 1.0 2.0 0.00 0.00 0.00 86 1011.8
20260508191913 73 143 2.0 3.0 0.00 0.00 0.00 85 1012.1
20260508191411 73 141 0.0 0.0 0.00 0.00 0.00 85 1012.0
20260508190902 73 149 1.0 2.0 0.00 0.00 0.00 85 1012.1
20260508190359 72 80 5.0 7.0 0.00 0.00 0.00 85 1012.2
20260508185854 72 116 0.0 0.0 0.00 0.00 0.00 86 1012.2
20260508185352 72 123 1.0 2.0 0.00 0.00 0.00 85 1012.1
20260508184849 72 132 0.0 0.0 0.00 0.00 0.00 86 1012.3
20260508184347 72 134 1.0 2.0 0.00 0.00 0.00 86 1012.3
20260508183843 72 108 0.0 2.0 0.00 0.00 0.00 85 1012.5
20260508183340 72 135 2.0 2.0 0.00 0.00 0.00 86 1012.4
20260508182836 72 111 2.0 3.0 0.00 0.00 0.00 85 1012.4
20260508182333 72 133 0.0 0.0 0.00 0.00 0.00 86 1012.5
20260508181828 71 142 1.0 2.0 0.00 0.00 0.00 86 1012.7
20260508181325 72 135 0.0 0.0 0.00 0.00 0.00 84 1012.7
20260508180822 71 124 3.0 3.0 0.00 0.00 0.00 85 1012.8
20260508180319 71 108 0.0 2.0 0.00 0.00 0.00 86 1012.7
20260508175815 70 92 2.0 3.0 0.00 0.00 0.00 85 1013.1
20260508175312 71 141 2.0 3.0 0.00 0.00 0.00 85 1013.1
20260508174810 70 108 3.0 3.0 0.00 0.00 0.00 85 1013.1
20260508174307 70 135 1.0 2.0 0.00 0.00 0.00 85 1012.9
20260508173803 69 141 0.0 0.0 0.00 0.00 0.00 87 1013.1
20260508173300 69 108 2.0 3.0 0.00 0.00 0.00 86 1013.3
20260508172756 69 145 0.0 0.0 0.00 0.00 0.00 86 1013.2
20260508172254 69 326 4.0 5.0 0.00 0.00 0.00 85 1013.2
20260508171750 70 150 1.0 2.0 0.00 0.00 0.00 86 1013.1
20260508171246 69 116 2.0 3.0 0.00 0.00 0.00 86 1013.3
20260508170743 69 138 1.0 2.0 0.00 0.00 0.00 86 1013.3
20260508170241 69 117 0.0 2.0 0.00 0.00 0.00 86 1013.5
20260508165738 69 147 2.0 3.0 0.00 0.00 0.00 85 1013.5
20260508165235 69 149 0.0 0.0 0.00 0.00 0.00 86 1013.4
20260508164731 69 147 3.0 3.0 0.00 0.00 0.00 85 1013.8
20260508164228 68 144 3.0 3.0 0.00 0.00 0.00 86 1013.8
20260508163726 69 126 4.0 5.0 0.00 0.00 0.00 84 1013.9
20260508163223 69 144 3.0 3.0 0.00 0.00 0.00 84 1013.7
20260508162719 69 156 0.0 2.0 0.00 0.00 0.00 85 1013.9
20260508162216 68 149 2.0 2.0 0.00 0.00 0.00 86 1013.8
20260508161713 68 152 0.0 2.0 0.00 0.00 0.00 87 1013.7
20260508161210 68 142 4.0 5.0 0.00 0.00 0.00 86 1013.6
20260508160708 67 111 4.0 7.0 0.00 0.00 0.00 87 1013.9
20260508160206 67 143 5.0 7.0 0.00 0.00 0.00 88 1013.9
20260508155702 67 115 4.0 5.0 0.00 0.00 0.00 88 1014.0
20260508155159 67 117 5.0 5.0 0.00 0.00 0.00 88 1014.0
20260508154657 66 140 2.0 3.0 0.00 0.00 0.00 88 1014.3
20260508154153 67 138 4.0 5.0 0.00 0.00 0.00 87 1014.4
20260508153650 67 122 3.0 5.0 0.00 0.00 0.00 88 1014.3
20260508153147 67 121 5.0 5.0 0.00 0.00 0.00 87 1014.1
20260508152644 67 124 2.0 3.0 0.00 0.00 0.00 87 1014.0
20260508152139 66 145 1.0 2.0 0.00 0.00 0.00 88 1014.1
20260508151636 66 133 0.0 2.0 0.00 0.00 0.00 88 1014.1
20260508151132 66 126 4.0 5.0 0.00 0.00 0.00 87 1014.2
20260508150630 66 132 3.0 5.0 0.00 0.00 0.00 87 1014.2
20260508150126 66 130 4.0 5.0 0.00 0.00 0.00 86 1014.1
20260508145622 66 147 4.0 5.0 0.00 0.00 0.00 86 1014.4
20260508145119 66 125 4.0 7.0 0.00 0.00 0.00 87 1014.2
20260508144617 66 142 2.0 3.0 0.00 0.00 0.00 87 1014.1
20260508144114 66 133 6.0 7.0 0.00 0.00 0.00 85 1014.2
20260508143611 65 131 4.0 5.0 0.00 0.00 0.00 86 1014.2
20260508143108 66 121 4.0 5.0 0.00 0.00 0.00 85 1014.3
20260508142604 65 149 0.0 2.0 0.00 0.00 0.00 86 1014.3
20260508142101 65 160 1.0 2.0 0.00 0.00 0.00 87 1014.5
20260508141558 65 150 2.0 3.0 0.00 0.00 0.00 86 1014.6
20260508141055 65 154 0.0 0.0 0.00 0.00 0.00 87 1014.5
20260508140553 65 164 2.0 3.0 0.00 0.00 0.00 86 1014.6
20260508140049 66 141 0.0 2.0 0.00 0.00 0.00 86 1014.3
20260508135544 65 150 0.0 0.0 0.00 0.00 0.00 87 1014.4
20260508135041 64 152 1.0 2.0 0.00 0.00 0.00 86 1014.2
20260508134538 64 137 4.0 5.0 0.00 0.00 0.00 87 1014.3
20260508134035 64 97 3.0 3.0 0.00 0.00 0.00 87 1014.3
20260508133532 64 135 3.0 3.0 0.00 0.00 0.00 88 1014.3
20260508133029 64 120 2.0 3.0 0.00 0.00 0.00 89 1014.2
20260508132527 63 143 1.0 2.0 0.00 0.00 0.00 90 1014.4
20260508132023 62 148 0.0 0.0 0.00 0.00 0.00 91 1014.4
20260508131518 62 141 3.0 3.0 0.00 0.00 0.00 91 1014.4
20260508131015 62 127 2.0 3.0 0.00 0.00 0.00 91 1014.4
20260508130513 62 121 2.0 3.0 0.00 0.00 0.00 91 1014.6
20260508130009 61 156 2.0 5.0 0.00 0.00 0.00 92 1014.4
20260508125505 61 163 2.0 2.0 0.00 0.00 0.00 92 1014.5
20260508125003 61 141 2.0 2.0 0.00 0.00 0.00 92 1014.5
20260508124500 61 139 2.0 2.0 0.00 0.00 0.00 92 1014.6
20260508123957 61 163 2.0 3.0 0.00 0.00 0.00 93 1014.7
20260508123456 61 153 0.0 0.0 0.00 0.00 0.00 93 1014.6
20260508122952 61 159 2.0 2.0 0.00 0.00 0.00 93 1014.8
20260508122449 61 160 1.0 2.0 0.00 0.00 0.00 93 1014.6
20260508121946 61 158 2.0 2.0 0.00 0.00 0.00 93 1014.4
20260508121444 61 146 2.0 2.0 0.00 0.00 0.00 93 1014.6
20260508120942 60 170 1.0 2.0 0.00 0.00 0.00 93 1014.6
20260508120439 61 158 0.0 0.0 0.00 0.00 0.00 94 1015.0
20260508115937 60 148 0.0 0.0 0.00 0.00 0.00 93 1014.8
20260508115435 60 147 0.0 0.0 0.00 0.00 0.00 93 1014.9
20260508114931 60 161 0.0 0.0 0.00 0.00 0.00 93 1015.1
20260508114428 60 161 0.0 0.0 0.00 0.00 0.00 93 1015.0
20260508113924 60 148 0.0 0.0 0.00 0.00 0.00 93 1014.9
20260508113422 60 150 0.0 0.0 0.00 0.00 0.00 93 1014.9
20260508112919 60 150 0.0 0.0 0.00 0.00 0.00 93 1014.9
20260508112416 60 143 0.0 0.0 0.00 0.00 0.00 93 1015.0
20260508111913 60 133 0.0 0.0 0.00 0.00 0.00 93 1014.8
20260508111410 60 133 0.0 0.0 0.00 0.00 0.00 93 1014.8
20260508110907 60 140 0.0 0.0 0.00 0.00 0.00 93 1015.0
20260508110405 60 142 1.0 2.0 0.00 0.00 0.00 93 1014.8
20260508105904 60 88 2.0 2.0 0.00 0.00 0.00 93 1014.8
20260508105400 60 139 0.0 0.0 0.00 0.00 0.00 93 1015.0
20260508104858 60 150 0.0 0.0 0.00 0.00 0.00 92 1015.2
20260508104355 60 143 1.0 2.0 0.00 0.00 0.00 92 1015.2
20260508103852 60 149 0.0 0.0 0.00 0.00 0.00 92 1015.3
20260508103349 60 143 0.0 0.0 0.00 0.00 0.00 92 1015.3
20260508102846 61 161 0.0 0.0 0.00 0.00 0.00 91 1015.5
20260508102344 61 146 0.0 2.0 0.00 0.00 0.00 91 1015.5
20260508101841 61 144 1.0 2.0 0.00 0.00 0.00 91 1015.6
20260508101339 61 109 3.0 5.0 0.00 0.00 0.00 90 1015.4
20260508100836 61 154 0.0 0.0 0.00 0.00 0.00 89 1015.5
20260508100335 61 149 1.0 2.0 0.00 0.00 0.00 89 1015.6
20260508095830 61 143 1.0 2.0 0.00 0.00 0.00 90 1015.5
20260508095328 61 305 4.0 5.0 0.00 0.00 0.00 90 1015.7
20260508094825 61 88 3.0 3.0 0.00 0.00 0.00 90 1015.7
20260508094322 61 202 4.0 5.0 0.00 0.00 0.00 90 1015.6
20260508093819 61 139 2.0 2.0 0.00 0.00 0.00 89 1015.4
20260508093316 61 113 3.0 3.0 0.00 0.00 0.00 89 1015.3
20260508092813 61 129 3.0 3.0 0.00 0.00 0.00 89 1015.2
20260508092313 61 137 0.0 0.0 0.00 0.00 0.00 89 1015.1
20260508091809 61 142 0.0 0.0 0.00 0.00 0.00 89 1015.2
20260508091305 61 142 0.0 0.0 0.00 0.00 0.00 89 1015.2
20260508090803 61 145 0.0 0.0 0.00 0.00 0.00 89 1015.2
20260508090302 61 145 0.0 0.0 0.00 0.00 0.00 89 1015.2
20260508085757 61 145 0.0 0.0 0.00 0.00 0.00 88 1014.8
20260508085254 61 147 0.0 0.0 0.00 0.00 0.00 88 1014.8
20260508084749 61 144 0.0 0.0 0.00 0.00 0.00 88 1014.7
20260508084248 61 146 0.0 0.0 0.00 0.00 0.00 89 1014.6
20260508083745 61 76 0.0 0.0 0.00 0.00 0.00 88 1014.5
20260508083242 60 144 0.0 0.0 0.00 0.00 0.00 89 1014.7
20260508082736 60 147 0.0 0.0 0.00 0.00 0.00 89 1014.5
20260508082235 60 149 0.0 0.0 0.00 0.00 0.00 89 1014.4
20260508081732 60 96 0.0 0.0 0.00 0.00 0.00 89 1014.5
20260508081229 60 148 0.0 0.0 0.00 0.00 0.00 89 1014.4
20260508080726 60 127 0.0 0.0 0.00 0.00 0.00 90 1014.4
20260508080224 59 143 0.0 0.0 0.00 0.00 0.00 93 1014.7
20260508075720 59 145 0.0 0.0 0.00 0.00 0.00 95 1014.9
20260508075217 59 147 0.0 0.0 0.00 0.00 0.00 95 1014.9
20260508074714 59 151 0.0 0.0 0.00 0.00 0.00 96 1014.9
20260508074212 59 151 0.0 0.0 0.00 0.00 0.00 96 1015.0
20260508073708 59 151 0.0 0.0 0.00 0.00 0.00 96 1015.1
20260508073207 59 151 0.0 0.0 0.00 0.00 0.00 96 1015.2
20260508072702 58 150 0.0 0.0 0.00 0.00 0.00 96 1015.2
20260508072159 58 147 0.0 0.0 0.00 0.00 0.00 96 1015.3
20260508071657 58 163 0.0 0.0 0.00 0.00 0.00 96 1015.5
20260508071155 58 129 0.0 0.0 0.00 0.00 0.00 96 1015.7
20260508070652 58 121 0.0 0.0 0.00 0.00 0.00 96 1015.6
20260508070151 58 155 0.0 0.0 0.00 0.00 0.00 96 1015.5
20260508065647 58 155 0.0 0.0 0.00 0.00 0.00 96 1015.5
20260508065145 57 154 0.0 0.0 0.00 0.00 0.00 96 1015.6
20260508064643 57 156 0.0 0.0 0.00 0.00 0.00 96 1015.7
20260508064141 57 156 0.0 0.0 0.00 0.00 0.00 96 1015.7
20260508063638 57 156 0.0 0.0 0.00 0.00 0.00 96 1015.8
20260508063136 57 156 0.0 0.0 0.00 0.00 0.00 95 1016.1
20260508062633 57 156 0.0 0.0 0.00 0.00 0.00 95 1015.9
20260508062129 58 160 0.0 0.0 0.00 0.00 0.00 95 1016.0
20260508061627 58 184 0.0 0.0 0.00 0.00 0.00 95 1015.8
20260508061124 58 159 0.0 0.0 0.00 0.00 0.00 95 1015.6
20260508060621 58 160 0.0 0.0 0.00 0.00 0.00 95 1015.7
20260508060118 58 155 0.0 0.0 0.00 0.00 0.00 95 1015.6
20260508055613 58 132 0.0 0.0 0.00 0.00 0.00 95 1015.5
20260508055111 58 156 0.0 0.0 0.00 0.00 0.00 95 1015.6
20260508054607 58 139 0.0 0.0 0.00 0.00 0.00 95 1015.4
20260508054104 58 145 0.0 0.0 0.00 0.00 0.00 95 1015.4
20260508053601 58 146 0.0 0.0 0.00 0.00 0.00 95 1015.8
20260508053059 58 146 0.0 0.0 0.00 0.00 0.00 95 1015.7
20260508052556 58 146 0.0 0.0 0.00 0.00 0.00 95 1015.9
20260508052053 58 146 0.0 0.0 0.00 0.00 0.00 95 1015.9
20260508051544 58 147 0.0 0.0 0.00 0.00 0.00 94 1016.0
20260508051039 58 158 0.0 0.0 0.00 0.00 0.00 94 1016.6
20260508050536 59 160 0.0 0.0 0.00 0.00 0.00 94 1016.4
20260508050033 58 146 0.0 0.0 0.00 0.00 0.00 94 1015.9
20260508045529 58 146 0.0 0.0 0.00 0.00 0.00 94 1016.0
20260508045027 58 146 0.0 0.0 0.00 0.00 0.00 94 1016.1
20260508044524 59 145 0.0 0.0 0.00 0.00 0.00 94 1015.7
20260508044020 59 146 0.0 0.0 0.00 0.00 0.00 93 1015.7
20260508043517 59 157 0.0 0.0 0.00 0.00 0.00 93 1016.2
20260508043014 59 160 0.0 0.0 0.00 0.00 0.00 93 1016.1
20260508042511 59 160 0.0 0.0 0.00 0.00 0.00 93 1015.9
20260508042008 59 160 0.0 0.0 0.00 0.00 0.00 92 1016.1
20260508041505 59 160 0.0 0.0 0.00 0.00 0.00 92 1016.2
20260508041001 59 160 0.0 0.0 0.00 0.00 0.00 92 1016.4
20260508040458 59 161 0.0 0.0 0.00 0.00 0.00 92 1016.5
20260508035956 59 116 0.0 0.0 0.00 0.00 0.00 92 1016.6
20260508035453 59 154 0.0 0.0 0.00 0.00 0.00 92 1016.5
20260508034949 59 147 0.0 0.0 0.00 0.00 0.00 92 1016.1
20260508034447 59 147 0.0 0.0 0.00 0.00 0.00 92 1016.2
20260508033943 59 136 0.0 0.0 0.00 0.00 0.00 92 1016.7
20260508033441 59 163 0.0 0.0 0.00 0.00 0.00 92 1016.5
20260508032938 59 154 0.0 0.0 0.00 0.00 0.00 91 1016.1
20260508032435 59 154 0.0 0.0 0.00 0.00 0.00 91 1015.8
20260508031931 60 154 0.0 0.0 0.00 0.00 0.00 90 1015.9
20260508031429 60 154 0.0 0.0 0.00 0.00 0.00 90 1015.7
20260508030924 60 154 0.0 0.0 0.00 0.00 0.00 90 1015.5
20260508030422 60 153 0.0 0.0 0.00 0.00 0.00 89 1015.5
20260508025919 60 164 0.0 0.0 0.00 0.00 0.00 89 1015.8
20260508025415 60 173 0.0 0.0 0.00 0.00 0.00 89 1015.4
20260508024913 60 125 0.0 0.0 0.00 0.00 0.00 89 1015.1
20260508024409 60 131 0.0 0.0 0.00 0.00 0.00 88 1015.0
20260508023906 60 134 0.0 0.0 0.00 0.00 0.00 88 1015.1
20260508023403 61 131 0.0 0.0 0.00 0.00 0.00 87 1015.2
20260508022859 60 131 0.0 0.0 0.00 0.00 0.00 88 1015.0
20260508022355 61 135 0.0 0.0 0.00 0.00 0.00 88 1014.8
20260508021852 61 134 0.0 0.0 0.00 0.00 0.00 88 1015.0
20260508021348 61 137 0.0 0.0 0.00 0.00 0.00 87 1015.2
20260508020844 61 139 0.0 0.0 0.00 0.00 0.00 87 1015.3
20260508020342 61 139 0.0 0.0 0.00 0.00 0.00 87 1015.3
20260508015839 61 135 0.0 0.0 0.00 0.00 0.00 87 1014.9
20260508015337 61 135 0.0 0.0 0.00 0.00 0.00 86 1015.0
20260508014833 62 135 0.0 0.0 0.00 0.00 0.00 86 1015.2
20260508014332 61 128 0.0 0.0 0.00 0.00 0.00 86 1015.2
20260508013831 61 142 0.0 0.0 0.00 0.00 0.00 86 1015.3
20260508013328 62 142 0.0 0.0 0.00 0.00 0.00 86 1015.4
20260508012826 62 142 0.0 0.0 0.00 0.00 0.00 86 1015.3
20260508012323 62 142 0.0 0.0 0.00 0.00 0.00 85 1015.0
20260508011820 62 142 0.0 0.0 0.00 0.00 0.00 85 1015.1
20260508011318 62 142 0.0 0.0 0.00 0.00 0.00 84 1015.4
20260508010815 63 142 0.0 0.0 0.00 0.00 0.00 85 1015.3
20260508010313 63 142 0.0 0.0 0.00 0.00 0.00 84 1015.2
20260508005809 63 142 0.0 0.0 0.00 0.00 0.00 83 1015.5
20260508005306 64 142 0.0 0.0 0.00 0.00 0.00 82 1015.5
20260508004802 64 142 0.0 0.0 0.00 0.00 0.00 82 1015.5
20260508004258 64 143 0.0 0.0 0.00 0.00 0.00 80 1015.6
20260508003754 64 143 1.0 2.0 0.00 0.00 0.00 80 1015.7
20260508003252 64 142 2.0 3.0 0.00 0.00 0.00 79 1015.6
20260508002748 65 138 0.0 0.0 0.00 0.00 0.00 79 1015.9
20260508002246 65 137 0.0 0.0 0.00 0.00 0.00 76 1016.2
20260508001742 65 153 0.0 0.0 0.00 0.00 0.00 77 1016.4
20260508001237 65 137 0.0 0.0 0.00 0.00 0.00 77 1016.0
20260508000734 65 127 0.0 0.0 0.00 0.00 0.00 76 1016.0
20260508000231 65 138 0.0 0.0 0.00 0.00 0.00 77 1016.1
20260507235727 65 138 2.0 2.0 0.00 0.00 0.00 76 1016.2
20260507235225 65 136 0.0 0.0 0.00 0.00 0.00 76 1016.0
20260507234722 65 138 0.0 0.0 0.00 0.00 0.00 75 1015.9
20260507234219 65 122 0.0 2.0 0.00 0.00 0.00 74 1016.1
20260507233715 65 108 2.0 3.0 0.00 0.00 0.00 74 1016.3
20260507233213 65 142 0.0 0.0 0.00 0.00 0.00 74 1016.2
20260507232710 65 143 1.0 2.0 0.00 0.00 0.00 74 1016.0
20260507232207 65 133 0.0 0.0 0.00 0.00 0.00 75 1016.1
20260507231704 65 133 0.0 2.0 0.00 0.00 0.00 74 1016.0
20260507231200 65 125 2.0 3.0 0.00 0.00 0.00 73 1016.1
20260507230657 65 121 1.0 2.0 0.00 0.00 0.00 75 1015.9
20260507230155 65 134 1.0 2.0 0.00 0.00 0.00 72 1016.3
20260507225654 66 122 0.0 0.0 0.00 0.00 0.00 73 1016.4
20260507225151 66 143 1.0 2.0 0.00 0.00 0.00 74 1016.2
20260507224646 66 156 0.0 0.0 0.00 0.00 0.00 74 1016.4
20260507224143 65 180 2.0 3.0 0.00 0.00 0.00 74 1016.5
20260507223639 66 33 5.0 5.0 0.00 0.00 0.00 72 1016.2
20260507223136 65 153 1.0 2.0 0.00 0.00 0.00 74 1015.9
20260507222633 65 134 2.0 2.0 0.00 0.00 0.00 73 1016.2
20260507222130 66 115 1.0 2.0 0.00 0.00 0.00 74 1016.3
20260507221626 66 145 1.0 2.0 0.00 0.00 0.00 73 1016.9
20260507221123 66 138 1.0 2.0 0.00 0.00 0.00 72 1016.9
20260507220620 66 83 3.0 3.0 0.00 0.00 0.00 71 1017.1
20260507220117 66 339 5.0 7.0 0.00 0.00 0.00 72 1017.0
20260507215613 66 52 2.0 3.0 0.00 0.00 0.00 72 1016.9
20260507215111 66 130 3.0 5.0 0.00 0.00 0.00 72 1016.7
20260507214608 66 74 3.0 5.0 0.00 0.00 0.00 72 1016.9
20260507214104 66 84 4.0 5.0 0.00 0.00 0.00 71 1016.7
20260507213601 65 144 3.0 3.0 0.00 0.00 0.00 72 1016.0
20260507213058 65 119 1.0 3.0 0.00 0.00 0.00 73 1016.0
20260507212554 65 138 0.0 2.0 0.00 0.00 0.00 73 1016.5
20260507212051 65 102 4.0 5.0 0.00 0.00 0.00 72 1016.6
20260507211547 66 336 5.0 7.0 0.00 0.00 0.00 73 1016.9
20260507211043 66 337 4.0 5.0 0.00 0.00 0.00 72 1017.5
20260507210541 66 152 7.0 10.0 0.00 0.00 0.00 71 1017.6
20260507210038 66 160 2.0 3.0 0.00 0.00 0.00 74 1017.2
20260507205534 65 99 5.0 7.0 0.00 0.00 0.00 72 1017.0
20260507205031 65 80 3.0 3.0 0.00 0.00 0.00 73 1017.6
20260507204527 65 123 3.0 5.0 0.00 0.00 0.00 72 1017.8
20260507204025 64 137 2.0 3.0 0.00 0.00 0.00 74 1017.3
20260507203523 64 145 3.0 5.0 0.00 0.00 0.00 75 1017.4
20260507203020 64 45 6.0 9.0 0.00 0.00 0.00 73 1017.6
20260507202515 64 324 6.0 7.0 0.00 0.00 0.00 74 1017.5
20260507202012 64 4 2.0 3.0 0.00 0.00 0.00 74 1017.2
20260507201508 64 29 6.0 7.0 0.00 0.00 0.00 73 1017.3
20260507201004 64 121 3.0 3.0 0.00 0.00 0.00 73 1017.5